sat.trackr.live / text

‹ back to catalog

ONEWEB-0439

NORAD 51635 · 2022-012P

PAYLOAD ACTIVE UNKNOWN

§ Identity

Operator
Country
UK
Launch date
2022-02-10
Launch site
FRGUI
Launch vehicle
Mass (kg)
RCS (m²)

Purposes: comms

External: N2YO · Heavens-Above · Gunter

§ Orbital elements

Epoch: 2026-09-19T13:27:40.491648Z

Period
109.89 min
Inclination
87.8903°
Eccentricity
0.0001918
Mean motion
13.10370062 rev/d
Perigee alt
1,220.3 km
Apogee alt
1,223.2 km
Semi-major
7,599.9 km
B*
1.3162e-4
RAAN
17.4810°
Arg perigee
103.4306°
Mean anomaly
256.7035°
Rev number
22,168

§ Raw data

ONEWEB-04391 51635U 22012P   26262.56088532  .00000059  00000+0  13162-3 0  99912 51635  87.8903  17.4810 0001918 103.4306 256.7035 13.10370062221684

JSON: /api/v1/satellites/51635 · /tle

For live sub-satellite position, see the globe view (requires WebGL).

§ Visibility from observer

Set your observer location to see the next 7 days of passes ≥ 10°. The values pass through the URL so the page stays shareable.

No JS? Fill the form by hand. The geolocation button needs JavaScript.